Location: Bu�n Treun
(12.1333°N, 108.3167°E)
Time: 23:29:32
(UTC+00:00)

Cosmos 1538 Rocket - Pass Details

Date: 13 July 2020
Orbit: 753 x 791 km, 74.0° (Epoch: 14 August)

Event Time Altitude Azimuth Distance (km) Brightness Sun altitude
Rises 12:19:07 0° 193° (SSW) 3,277 7.1 -14.9°
Reaches altitude 10° 12:21:30 10° 194° (SSW) 2,348 6.4 -15.4°
Maximum altitude 12:26:51 85° 282° (WNW) 793 4.1 -16.6°
Drops below altitude 10° 12:32:12 10° 12° (NNE) 2,337 6.7 -17.7°
Sets 12:34:34 0° 12° (NNE) 3,261 7.5 -18.3°
